Gastonia, NC

5:39 AM EST on December 09, 2019 (GMT -0500)
Gastonia Municipal

Weather History for KAKH - October, 2019

Change the Weather History Date:

Monday, October 21, 2019

  Actual Average (WUND) Record (WUND)
Temperature  
Mean Temperature 65 °F -  
Max Temperature 75 °F - - (-1)
Min Temperature 55 °F - - (-1)
Growing Degree Days 15 (Base 50)    
Moisture  
Dew Point 58 °F    
Average Humidity 79    
Maximum Humidity 90    
Minimum Humidity 59    
Precipitation  
Precipitation 0.00 in - - ()
Sea Level Pressure  
Sea Level Pressure 30.02 in    
Wind  
Wind Speed 1 mph ()    
Max Wind Speed 6 mph    
Max Gust Speed -    
Visibility 7.9 miles    
Events Fog    
Averages and records for this station are not official NWS values.
T = Trace of Precipitation, MM = Missing Value Source: Averaged Metar Reports

Daily Weather History Graph

Daily Weather History Graph

Search for Another Location

Airport or City:

Astronomy

Oct. 21, 2019 Rise Set
Actual Time 7:35 AM EDT 6:42 PM EDT
Civil Twilight 7:09 AM EDT 7:08 PM EDT
Nautical Twilight 6:40 AM EDT 7:37 PM EDT
Astronomical Twilight 6:10 AM EDT 8:06 PM EDT
Moon No Moon Rise 2:44 PM EDT (10/21)
Length of Visible Light 11h 58m
Length of Day
11h 06m
Waning Gibbous, 48% of the Moon is Illuminated
Oct 21
Waning Gibbous
Oct 27
New
Nov 4
First Quarter
Nov 12
Full
Nov 19
Last Quarter

Hourly Weather History & Observations

Time (EDT) Temp. Dew Point Humidity Pressure Visibility Wind Dir Wind Speed Gust Speed Precip Events Conditions
12:54 AM 61.0 °F 57.0 °F 87% 29.97 in 10.0 mi Calm Calm - N/A   Clear
1:54 AM 59.0 °F 55.0 °F 87% 29.99 in 5.0 mi NE 4.6 mph - N/A   Clear
2:06 AM 59.0 °F 55.9 °F 90% 30.00 in 2.5 mi Calm Calm - N/A   Clear
2:14 AM 60.1 °F 57.0 °F 90% 30.00 in 10.0 mi Calm Calm - N/A   Clear
2:54 AM 61.0 °F 57.0 °F 87% 29.99 in 10.0 mi Calm Calm - N/A   Mostly Cloudy
3:44 AM 57.9 °F 55.0 °F 90% 30.01 in 1.8 mi Calm Calm - N/A   Clear
3:54 AM 59.0 °F 55.0 °F 87% 29.99 in 1.8 mi Calm Calm - N/A   Clear
4:17 AM 57.0 °F 54.0 °F 89% 30.01 in 0.5 mi Calm Calm - N/A Fog Fog
4:32 AM 55.9 °F 53.1 °F 90% 30.01 in 2.0 mi Calm Calm - N/A   Clear
4:39 AM 57.9 °F 54.0 °F 87% 30.02 in 9.0 mi Calm Calm - N/A   Clear
4:45 AM 57.0 °F 54.0 °F 89% 30.02 in 1.5 mi Calm Calm - N/A   Clear
4:54 AM 57.0 °F 53.1 °F 87% 30.01 in 0.8 mi Calm Calm - N/A   Clear
5:01 AM 57.0 °F 53.1 °F 87% 30.02 in 1.2 mi Calm Calm - N/A   Clear
5:16 AM 57.0 °F 54.0 °F 89% 30.01 in 3.0 mi Calm Calm - N/A   Partly Cloudy
5:54 AM 59.0 °F 55.0 °F 87% 29.99 in 10.0 mi NE 3.5 mph - N/A   Mostly Cloudy
6:54 AM 60.1 °F 55.9 °F 86% 30.02 in 10.0 mi NE 3.5 mph - N/A   Overcast
7:52 AM 59.0 °F 55.4 °F 88% 30.04 in 10.0 mi Calm Calm - N/A   Scattered Clouds
7:54 AM 59.0 °F 55.0 °F 87% 30.03 in 10.0 mi Calm Calm - N/A   Scattered Clouds
8:54 AM 62.1 °F 57.0 °F 84% 30.06 in 10.0 mi Calm Calm - N/A   Overcast
9:54 AM 64.0 °F 57.9 °F 80% 30.06 in 10.0 mi Variable 3.5 mph - N/A   Overcast
10:54 AM 66.0 °F 57.0 °F 73% 30.07 in 10.0 mi East 5.8 mph - N/A   Overcast
11:54 AM 70.0 °F 57.9 °F 65% 30.07 in 10.0 mi East 4.6 mph - N/A   Overcast
12:54 PM 73.0 °F 59.0 °F 61% 30.06 in 10.0 mi Calm Calm - N/A   Mostly Cloudy
1:54 PM 73.9 °F 59.0 °F 59% 30.03 in 10.0 mi Calm Calm - N/A   Mostly Cloudy
2:49 PM 75.2 °F 60.8 °F 61% 30.02 in 10.0 mi Calm Calm - N/A   Overcast
2:54 PM 75.0 °F 60.1 °F 60% 30.01 in 10.0 mi Variable 4.6 mph - N/A   Overcast
3:02 PM 73.9 °F 60.1 °F 62% 30.02 in 10.0 mi Variable 4.6 mph - N/A   Overcast
3:54 PM 75.0 °F 61.0 °F 62% 30.01 in 10.0 mi SE 5.8 mph - N/A   Overcast
4:54 PM 73.9 °F 61.0 °F 64% 30.01 in 10.0 mi Variable 4.6 mph - N/A   Mostly Cloudy
5:54 PM 72.0 °F 61.0 °F 68% 30.00 in 10.0 mi Calm Calm - N/A   Clear
6:54 PM 68.0 °F 61.0 °F 78% 30.01 in 10.0 mi Calm Calm - N/A   Clear
7:54 PM 68.0 °F 61.0 °F 78% 30.01 in 10.0 mi Calm Calm - N/A   Mostly Cloudy
8:54 PM 66.9 °F 61.0 °F 81% 30.02 in 10.0 mi Calm Calm - N/A   Overcast
9:54 PM 66.9 °F 61.0 °F 81% 30.01 in 10.0 mi Calm Calm - N/A   Scattered Clouds
10:54 PM 66.0 °F 61.0 °F 84% 30.02 in 10.0 mi Calm Calm - N/A   Mostly Cloudy
11:44 PM 68.0 °F 61.0 °F 78% 30.03 in 10.0 mi South 3.5 mph - N/A   Mostly Cloudy
11:51 PM 68.0 °F 60.8 °F 78% 30.03 in 10.0 mi South 3.5 mph - N/A   Mostly Cloudy
11:54 PM 68.0 °F 61.0 °F 78% 30.01 in 10.0 mi SSE 3.5 mph - N/A   Mostly Cloudy